This is the latest recevied weather packets stored in our database for station/object W1LBM. If no packets are shown the sender has not sent any weather packets the latest 10 day(s).
| Time | Temp. | Humidity | Pressure | Rain* | Wind** | Luminosity | Snow |
|---|---|---|---|---|---|---|---|
| 1777921437 | 20.56° C | 33% | 1011.3 hPa | 0 mm | - | 582 W/m² | - |
| 1777921134 | 21.11° C | 34% | 1011.3 hPa | 0 mm | - | 594 W/m² | - |
| 1777920831 | 21.11° C | 33% | 1011.5 hPa | 0 mm | - | 604 W/m² | - |
| 1777920527 | 20.56° C | 32% | 1011.5 hPa | 0 mm | - | 615 W/m² | - |
| 1777920223 | 21.11° C | 32% | 1011.6 hPa | 0 mm | - | 621 W/m² | - |
| 1777919919 | 20.56° C | 33% | 1011.4 hPa | 0 mm | - | 626 W/m² | - |
| 1777919616 | 21.11° C | 33% | 1011.5 hPa | 0 mm | - | 634 W/m² | - |
| 1777919314 | 20.56° C | 33% | 1011.8 hPa | 0 mm | - | 638 W/m² | - |
| 1777919011 | 20.56° C | 33% | 1011.7 hPa | 0 mm | - | 639 W/m² | - |
| 1777918708 | 20.56° C | 33% | 1011.9 hPa | 0 mm | - | 649 W/m² | - |
| 1777918405 | 20.56° C | 32% | 1011.9 hPa | 0 mm | - | 655 W/m² | - |
| 1777918104 | 20° C | 33% | 1011.8 hPa | 0 mm | - | 664 W/m² | - |
| 1777917802 | 20.56° C | 34% | 1011.9 hPa | 0 mm | - | 668 W/m² | - |
| 1777917500 | 20° C | 35% | 1011.8 hPa | 0 mm | - | 676 W/m² | - |
| 1777917197 | 20° C | 34% | 1011.8 hPa | 0 mm | - | 678 W/m² | - |
| 1777916895 | 20° C | 33% | 1012 hPa | 0 mm | - | 681 W/m² | - |
| 1777916592 | 20° C | 33% | 1011.9 hPa | 0 mm | - | 685 W/m² | - |
| 1777916288 | 20° C | 33% | 1012.1 hPa | 0 mm | - | 694 W/m² | - |
| 1777915985 | 20° C | 33% | 1011.8 hPa | 0 mm | - | 695 W/m² | - |
| 1777915682 | 20° C | 34% | 1011.7 hPa | 0 mm | - | 697 W/m² | - |
| 1777915379 | 20° C | 33% | 1011.8 hPa | 0 mm | - | 703 W/m² | - |
| 1777915074 | 20° C | 34% | 1012 hPa | 0 mm | - | 707 W/m² | - |
| 1777914772 | 20° C | 35% | 1012.1 hPa | 0 mm | - | 711 W/m² | - |
| 1777914469 | 20° C | 34% | 1012 hPa | 0 mm | - | 710 W/m² | - |
| 1777914166 | 20° C | 33% | 1012.1 hPa | 0 mm | - | 715 W/m² | - |
* Rain latest hour (hover to see other rain measurements)
** Current wind speed in m/s (hover to see current wind gust speed)